Madera North
DateTemperatureDew Point
09/02 - 08:00 AM61.8°51.9°
09/02 - 07:45 AM60.5°51.7°
09/02 - 07:30 AM59.5°51.1°
09/02 - 07:15 AM58.5°50.2°
09/02 - 07:00 AM56.5°48.7°
09/02 - 06:45 AM55.2°47.4°
09/02 - 06:30 AM54.3°47.8°
09/02 - 06:15 AM53.5°47.1°
09/02 - 06:00 AM53.1°46.9°
09/02 - 05:45 AM52.5°46.0°
09/02 - 05:30 AM52.0°45.1°
09/02 - 05:15 AM52.3°44.8°
09/02 - 05:00 AM53.0°45.9°
09/02 - 04:45 AM53.4°45.9°
09/02 - 04:30 AM53.8°46.3°
09/02 - 04:15 AM54.5°47.3°
09/02 - 04:00 AM55.1°47.8°
09/02 - 03:45 AM55.2°47.7°
09/02 - 03:30 AM55.4°47.3°
09/02 - 03:15 AM56.2°47.6°
09/02 - 03:00 AM57.1°48.0°
09/02 - 02:45 AM57.6°48.2°
09/02 - 02:30 AM58.3°48.1°
09/02 - 02:15 AM59.0°48.3°
09/02 - 02:00 AM59.5°48.3°
09/02 - 01:45 AM60.3°48.5°
09/02 - 01:30 AM61.1°48.6°
09/02 - 01:15 AM61.7°48.6°
09/02 - 01:00 AM62.1°48.7°
09/02 - 12:45 AM62.3°48.7°
09/02 - 12:30 AM62.7°48.8°
09/02 - 12:15 AM62.8°48.8°
09/02 - 12:00 AM63.1°48.9°
09/01 - 11:45 PM63.4°48.9°
09/01 - 11:30 PM63.8°48.9°
09/01 - 11:15 PM64.0°49.0°
09/01 - 11:00 PM64.3°48.9°
09/01 - 10:45 PM64.8°48.9°
09/01 - 10:30 PM65.3°48.9°
09/01 - 10:15 PM65.9°49.0°
09/01 - 10:00 PM66.4°49.1°
09/01 - 09:45 PM66.3°49.7°
09/01 - 09:30 PM66.4°50.4°
09/01 - 09:15 PM66.2°50.6°
09/01 - 09:00 PM66.8°50.4°
09/01 - 08:45 PM67.6°49.6°
09/01 - 08:30 PM68.5°48.5°
09/01 - 08:15 PM69.4°47.3°
09/01 - 08:00 PM70.3°47.9°
09/01 - 07:45 PM71.5°47.9°
09/01 - 07:30 PM72.5°48.3°
09/01 - 07:15 PM72.9°48.0°
09/01 - 07:00 PM74.6°47.9°
09/01 - 06:45 PM76.5°47.8°
09/01 - 06:30 PM77.6°47.9°
09/01 - 06:15 PM78.1°48.1°
09/01 - 06:00 PM78.1°49.1°
09/01 - 05:45 PM77.6°48.7°
09/01 - 05:30 PM78.6°48.9°
09/01 - 05:15 PM79.8°48.6°
09/01 - 05:00 PM80.4°48.9°
09/01 - 04:45 PM80.5°48.6°
09/01 - 04:30 PM81.0°47.5°
09/01 - 04:15 PM81.2°46.3°
09/01 - 04:00 PM81.2°46.6°
09/01 - 03:45 PM80.9°47.4°
09/01 - 03:30 PM81.0°47.7°
09/01 - 03:15 PM80.4°47.7°
09/01 - 03:00 PM80.3°48.1°
09/01 - 02:45 PM80.2°48.9°
09/01 - 02:30 PM79.5°49.3°
09/01 - 02:15 PM79.1°49.2°
09/01 - 02:00 PM78.3°49.4°
09/01 - 01:45 PM77.7°49.7°
09/01 - 01:30 PM78.0°49.8°
09/01 - 01:15 PM77.0°50.1°
09/01 - 01:00 PM75.8°49.6°
09/01 - 12:45 PM75.6°49.9°
09/01 - 12:30 PM75.0°49.9°
09/01 - 12:15 PM73.6°50.2°
09/01 - 12:00 PM73.4°50.2°
09/01 - 11:45 AM73.1°50.2°
09/01 - 11:30 AM72.8°50.4°
09/01 - 11:15 AM71.9°50.0°
09/01 - 11:00 AM71.4°49.8°
09/01 - 10:45 AM70.9°49.9°
09/01 - 10:30 AM69.6°49.5°
09/01 - 10:15 AM69.3°49.5°
09/01 - 10:00 AM68.4°49.5°
09/01 - 09:45 AM67.9°49.5°
09/01 - 09:30 AM67.7°49.7°
09/01 - 09:15 AM66.5°49.8°
09/01 - 09:00 AM66.2°50.1°
09/01 - 08:45 AM65.1°49.9°
09/01 - 08:30 AM64.0°50.0°
09/01 - 08:15 AM63.4°50.0°
09/01 - 08:00 AM62.3°49.9°
09/01 - 07:45 AM61.7°49.9°
09/01 - 07:30 AM60.7°49.8°
09/01 - 07:15 AM59.4°49.7°
09/01 - 07:00 AM58.1°49.7°
09/01 - 06:45 AM57.0°49.7°
09/01 - 06:30 AM56.3°49.7°
09/01 - 06:15 AM56.0°49.6°
09/01 - 06:00 AM56.1°49.6°
09/01 - 05:45 AM56.0°49.5°
09/01 - 05:30 AM55.9°49.1°
09/01 - 05:15 AM56.5°49.3°
09/01 - 05:00 AM56.6°49.1°
09/01 - 04:45 AM57.0°49.1°
09/01 - 04:30 AM57.3°49.3°
09/01 - 04:15 AM57.8°49.4°
09/01 - 04:00 AM58.2°49.7°
09/01 - 03:45 AM58.5°49.9°
09/01 - 03:30 AM58.9°50.1°
09/01 - 03:15 AM59.4°50.2°
09/01 - 03:00 AM59.7°50.2°
09/01 - 02:45 AM60.4°50.2°
09/01 - 02:30 AM61.0°50.4°
09/01 - 02:15 AM61.2°50.7°
09/01 - 02:00 AM61.3°50.9°
09/01 - 01:45 AM61.3°50.5°
09/01 - 01:30 AM61.6°50.7°
09/01 - 01:15 AM61.7°50.8°
09/01 - 01:00 AM61.9°51.1°
09/01 - 12:45 AM62.4°51.8°
09/01 - 12:30 AM62.8°52.1°
09/01 - 12:15 AM63.2°52.2°
09/01 - 12:00 AM63.6°52.4°
08/31 - 11:45 PM64.0°52.5°
08/31 - 11:30 PM64.6°52.5°
08/31 - 11:15 PM65.3°52.8°
08/31 - 11:00 PM66.0°52.9°
08/31 - 10:45 PM66.2°52.9°
08/31 - 10:30 PM66.8°53.0°
08/31 - 10:15 PM66.9°52.7°
08/31 - 10:00 PM67.4°52.5°
08/31 - 09:45 PM68.2°52.5°
08/31 - 09:30 PM69.3°52.5°
08/31 - 09:15 PM70.5°52.5°
08/31 - 09:00 PM71.4°52.5°
08/31 - 08:45 PM72.0°51.9°
08/31 - 08:30 PM73.5°51.5°
08/31 - 08:15 PM75.1°51.4°
08/31 - 08:00 PM75.3°50.8°
08/31 - 07:45 PM76.1°49.9°
08/31 - 07:30 PM77.3°49.6°
08/31 - 07:15 PM78.7°50.1°
08/31 - 07:00 PM80.4°51.6°
08/31 - 06:45 PM82.0°52.5°
08/31 - 06:30 PM83.5°52.7°
08/31 - 06:15 PM85.0°52.4°
08/31 - 06:00 PM85.9°52.1°
08/31 - 05:45 PM86.8°51.8°
08/31 - 05:30 PM88.2°50.9°
08/31 - 05:15 PM88.6°51.2°
08/31 - 05:00 PM88.8°51.2°
08/31 - 04:45 PM89.8°51.8°
08/31 - 04:30 PM90.1°52.0°
08/31 - 04:15 PM90.0°51.8°
08/31 - 04:00 PM90.6°52.1°
08/31 - 03:45 PM90.2°51.6°
08/31 - 03:30 PM90.1°51.6°
08/31 - 03:15 PM89.8°52.2°
08/31 - 03:00 PM89.2°51.7°
08/31 - 02:45 PM88.4°51.9°
08/31 - 02:30 PM87.7°51.8°
08/31 - 02:15 PM88.1°51.8°
08/31 - 02:00 PM87.8°51.4°
08/31 - 01:45 PM87.1°51.1°
08/31 - 01:30 PM86.1°51.5°
08/31 - 01:15 PM86.0°52.1°
08/31 - 01:00 PM85.1°52.5°
08/31 - 12:45 PM84.8°53.0°
08/31 - 12:30 PM83.6°52.6°
08/31 - 12:15 PM83.6°52.5°
08/31 - 12:00 PM83.3°52.3°
08/31 - 11:45 AM82.6°53.0°
08/31 - 11:30 AM81.6°52.9°
08/31 - 11:15 AM80.7°53.0°
08/31 - 11:00 AM79.2°52.5°
08/31 - 10:45 AM78.3°53.4°
08/31 - 10:30 AM77.1°52.9°
08/31 - 10:15 AM75.7°52.3°
08/31 - 10:00 AM75.0°53.0°
08/31 - 09:45 AM74.0°52.9°
08/31 - 09:30 AM73.1°52.8°
08/31 - 09:15 AM72.0°52.7°
08/31 - 09:00 AM71.0°52.6°